YAOGAN-30 Q (44451 NORAD) Tracking and Keplerian Element Data

This shows tracking and keplerian element data for the satellite.

Feedback or suggestion? Click here.




ElementValue
Catalog44451
NameYAOGAN-30 Q
Epoch Orbit324
Epoch Day229.10164987
Epoch Year2019
RAAN206.977
Inclination34.9956
Eccentricity9.04E-05
Argument of Perigee171.923
Mean Anonmoly188.1479
Mean Motion14.89663666
Decay Rate3.43E-06
L11 44451U 19045C 19229.10164987 .00000343 00000-0 37950-4 0 9994
L22 44451 34.9956 206.9770 0000904 171.9230 188.1479 14.89663666 3245

Live tracking and technical data element details for YAOGAN-30 Q (NORAD 44451). YAOGAN-30 Q can be tracked NOW for your location showing map with azimuth and elevation plus other details from your city location.

Track the satellite on the map from your city or location and see movement details for azimuth, elevation, latitude, longitude, range, height, and movement on the map or in text.







IsCatalogInMostPopularTable: catalog: 44451, numindb: 5
Update: records affected: 1



GetName: 44451 YAOGAN-30 Q

Hit Count: updated at: Wed, 21 Aug 2019 12:15:41 GMT